STARLINK-34882, 66227

Orbit data source: Space-Track

STARLINK-34882, 66227 is a payload satellite owned by SpaceX/Seattle (US) in LEO that was launched on Tue, 28 Oct 2025 UTC via an FALCON 9 launch vehicle from the Air Force Western Test Range (AFWTR). Payload-class satellites include a variety of spacecraft equipped with specific instruments for various scientific and technological missions. These include communications satellites like Starlink; space stations such as the ISS; scientific satellites like the Hubble; Earth observation satellites from companies like Planet Labs, Umbra, and HawkEye 360; GPS; miniature CubeSats for education and research; and military/defense satellites.

Loading next visibility...
Identifier
66227, 2025-244X
Orbit
LEO
Country
Flag of USUS
Related business
Manufacturer
SpaceX/Seattle
Mission
Operational Commercial Communications
Bus & Motor
STARLINK V2MO, Unknown motor
Mass
575 kg wet, ~530 kg dry
Launch date (UTC)
2025-10-28 (8 months ago)
Launch vehicle
FALCON 9
Launch site
Air Force Western Test Range (AFWTR)
Object type
Payload
Rocket body
Debris
Shape & HBR
Box + 2 Pan, 17.7 m
Radar Cross Section
36.964 m², Large (>1 m²)

Expand to show TLE details & history
Last TLE update: 2 days ago

TLE from 2 days ago
0 STARLINK-34882
1 66227U 25244X   26170.28785258  .00013081  00000-0  39762-3 0  9994
2 66227  53.1577 117.3563 0001194  81.9161 278.1977 15.34399036 37228
Epoch: 2026-06-19T06:54Z
TLE epoch observation values (Epoch: 2026-06-19T06:54:30.462Z)
Latitude
-0.00004°
Longitude
106.21036°
Altitude
463.491 km
Speed
7.636 km/s
True Right ascension
07h 49m 25s
True Declination
0° 00' 00"
Sunlit
Object was in daylight at epoch
Visualization orbit readout
Latitude
Unknown
Longitude
Unknown
Altitude
Unknown
Speed
Unknown
Apparent Right ascension
Unknown
Apparent Declination
Unknown
Sunlit
N/A
Visualization observer readout
Local Sidereal Time
07:17:56
Azimuth
Unknown
Elevation
Unknown
Doppler factor
Unknown
Orbital elements
Apogee altitude
463.78 km
Perigee altitude
462.147 km
Semi-major axis
6,841.1 km
Eccentricity
0.00012
Inclination
53.1577°
RAAN
117.3563°
Arg. of periapsis
81.9161°
True anomaly
278.18416°
Mean anomaly
278.1977°
Eccentric anomaly
278.19093°
Mean motion
3.83578 °/min
Orbital period
93.85 mins
BSTAR
0.00039762
Loading maneuver chart data...
Computing Atmospheric mass density...
Loading historical data...
Loading historical data...
Loading historical data...
Loading historical data...
Loading historical data...
Loading historical data...
Loading historical data...

Documentation

Showing up to 5 results
|